owner,sensor,date,latitude,longitude,vertical_datum,wind_speed,wind_to_direction,wind_speed_of_gust,qcFlag 
DISL,ioos:station:DISL:BSCA:1,2016-10-01T00:00:00Z,30.3288,-87.8293,0.0,2.9,3.0,99.0,'11111222,11111222,11144222' 
DISL,ioos:station:DISL:BSCA:1,2016-10-01T00:30:00Z,30.3288,-87.8293,0.0,2.6,25.0,99.0,'11111222,11111222,11144222' 
DISL,ioos:station:DISL:BSCA:1,2016-10-01T01:00:00Z,30.3288,-87.8293,0.0,2.7,33.0,99.0,'11111222,11111222,11144222' 
DISL,ioos:station:DISL:BSCA:1,2016-10-01T01:30:00Z,30.3288,-87.8293,0.0,2.0,48.0,99.0,'11111222,11111222,11144222' 
DISL,ioos:station:DISL:BSCA:1,2016-10-01T02:00:00Z,30.3288,-87.8293,0.0,2.5,60.0,99.0,'11111222,11111222,11144222' 
DISL,ioos:station:DISL:BSCA:1,2016-10-01T02:30:00Z,30.3288,-87.8293,0.0,3.2,46.0,99.0,'11111222,11111222,11144222' 
DISL,ioos:station:DISL:BSCA:1,2016-10-01T03:00:00Z,30.3288,-87.8293,0.0,3.6,61.0,99.0,'11111222,11111222,11144222' 
DISL,ioos:station:DISL:BSCA:1,2016-10-01T03:30:00Z,30.3288,-87.8293,0.0,3.9,72.0,99.0,'11111222,11111222,11144222' 
DISL,ioos:station:DISL:BSCA:1,2016-10-01T04:00:00Z,30.3288,-87.8293,0.0,4.5,69.0,99.0,'11111222,11111222,11144222' 
DISL,ioos:station:DISL:BSCA:1,2016-10-01T04:30:00Z,30.3288,-87.8293,0.0,4.1,69.0,99.0,'11111222,11111222,11144222' 
DISL,ioos:station:DISL:BSCA:1,2016-10-01T05:00:00Z,30.3288,-87.8293,0.0,4.4,72.0,99.0,'11111222,11111222,11144222' 
DISL,ioos:station:DISL:BSCA:1,2016-10-01T05:30:00Z,30.3288,-87.8293,0.0,4.8,74.0,99.0,'11111222,11111222,11144222' 
DISL,ioos:station:DISL:BSCA:1,2016-10-01T06:00:00Z,30.3288,-87.8293,0.0,5.1,77.0,99.0,'11111222,11111222,11144222' 
DISL,ioos:station:DISL:BSCA:1,2016-10-01T06:30:00Z,30.3288,-87.8293,0.0,4.5,80.0,99.0,'11111222,11111222,11144222' 
DISL,ioos:station:DISL:BSCA:1,2016-10-01T07:00:00Z,30.3288,-87.8293,0.0,4.5,82.0,99.0,'11111222,11111222,11144222' 
DISL,ioos:station:DISL:BSCA:1,2016-10-01T07:30:00Z,30.3288,-87.8293,0.0,4.1,73.0,99.0,'11111222,11111222,11144222' 
DISL,ioos:station:DISL:BSCA:1,2016-10-01T08:00:00Z,30.3288,-87.8293,0.0,3.8,69.0,99.0,'11111222,11111222,11144222' 
DISL,ioos:station:DISL:BSCA:1,2016-10-01T08:30:00Z,30.3288,-87.8293,0.0,3.7,76.0,99.0,'11111222,11111222,11144222' 
DISL,ioos:station:DISL:BSCA:1,2016-10-01T09:00:00Z,30.3288,-87.8293,0.0,3.3,73.0,99.0,'11111222,11111222,11144222' 
DISL,ioos:station:DISL:BSCA:1,2016-10-01T09:30:00Z,30.3288,-87.8293,0.0,3.1,64.0,99.0,'11111222,11111222,11144222' 
DISL,ioos:station:DISL:BSCA:1,2016-10-01T10:00:00Z,30.3288,-87.8293,0.0,3.2,61.0,99.0,'11111222,11111222,11144222' 
DISL,ioos:station:DISL:BSCA:1,2016-10-01T10:30:00Z,30.3288,-87.8293,0.0,3.0,63.0,99.0,'11111222,11111222,11144222' 
DISL,ioos:station:DISL:BSCA:1,2016-10-01T11:00:00Z,30.3288,-87.8293,0.0,3.4,63.0,99.0,'11111222,11111222,11144222' 
DISL,ioos:station:DISL:BSCA:1,2016-10-01T11:30:00Z,30.3288,-87.8293,0.0,3.4,66.0,99.0,'11111222,11111222,11144222' 
DISL,ioos:station:DISL:BSCA:1,2016-10-01T12:00:00Z,30.3288,-87.8293,0.0,3.4,60.0,99.0,'11111222,11111222,11144222' 
DISL,ioos:station:DISL:BSCA:1,2016-10-01T12:30:00Z,30.3288,-87.8293,0.0,3.4,57.0,99.0,'11111222,11111222,11144222' 
DISL,ioos:station:DISL:BSCA:1,2016-10-01T13:00:00Z,30.3288,-87.8293,0.0,3.3,62.0,99.0,'11111222,11111222,11144222' 
DISL,ioos:station:DISL:BSCA:1,2016-10-01T13:30:00Z,30.3288,-87.8293,0.0,3.4,64.0,99.0,'11111222,11111222,11144222' 
DISL,ioos:station:DISL:BSCA:1,2016-10-01T14:00:00Z,30.3288,-87.8293,0.0,3.0,69.0,99.0,'11111222,11111222,11144222' 
DISL,ioos:station:DISL:BSCA:1,2016-10-01T14:30:00Z,30.3288,-87.8293,0.0,2.9,58.0,99.0,'11111222,11111222,11144222' 
DISL,ioos:station:DISL:BSCA:1,2016-10-01T15:00:00Z,30.3288,-87.8293,0.0,2.4,43.0,99.0,'11111222,11111222,11144222' 
DISL,ioos:station:DISL:BSCA:1,2016-10-01T15:30:00Z,30.3288,-87.8293,0.0,3.7,358.0,99.0,'11111222,11111222,11144222' 
DISL,ioos:station:DISL:BSCA:1,2016-10-01T16:00:00Z,30.3288,-87.8293,0.0,3.1,356.0,99.0,'11111222,11111222,11144222' 
DISL,ioos:station:DISL:BSCA:1,2016-10-01T16:30:00Z,30.3288,-87.8293,0.0,3.5,348.0,99.0,'11111222,11111222,11144222' 
DISL,ioos:station:DISL:BSCA:1,2016-10-01T17:00:00Z,30.3288,-87.8293,0.0,1.9,328.0,99.0,'11111222,11111222,11144222' 
DISL,ioos:station:DISL:BSCA:1,2016-10-01T17:30:00Z,30.3288,-87.8293,0.0,3.3,294.0,99.0,'11111222,11111222,11144222' 
DISL,ioos:station:DISL:BSCA:1,2016-10-01T18:00:00Z,30.3288,-87.8293,0.0,3.4,275.0,99.0,'11111222,11111222,11144222' 
DISL,ioos:station:DISL:BSCA:1,2016-10-01T18:30:00Z,30.3288,-87.8293,0.0,3.5,285.0,99.0,'11111222,11111222,11144222' 
DISL,ioos:station:DISL:BSCA:1,2016-10-01T19:00:00Z,30.3288,-87.8293,0.0,3.8,304.0,99.0,'11111222,11111222,11144222' 
DISL,ioos:station:DISL:BSCA:1,2016-10-01T19:30:00Z,30.3288,-87.8293,0.0,4.2,300.0,99.0,'11111222,11111222,11144222' 
DISL,ioos:station:DISL:BSCA:1,2016-10-01T20:00:00Z,30.3288,-87.8293,0.0,4.2,296.0,99.0,'11111222,11111222,11144222' 
DISL,ioos:station:DISL:BSCA:1,2016-10-01T20:30:00Z,30.3288,-87.8293,0.0,3.0,279.0,99.0,'11111222,11111222,11144222' 
DISL,ioos:station:DISL:BSCA:1,2016-10-01T21:00:00Z,30.3288,-87.8293,0.0,3.0,280.0,99.0,'11111222,11111222,11144222' 
DISL,ioos:station:DISL:BSCA:1,2016-10-01T21:30:00Z,30.3288,-87.8293,0.0,1.7,270.0,99.0,'11111222,11111222,11144222' 
DISL,ioos:station:DISL:BSCA:1,2016-10-01T22:00:00Z,30.3288,-87.8293,0.0,3.7,157.0,99.0,'11111222,11111222,11144222' 
DISL,ioos:station:DISL:BSCA:1,2016-10-01T22:30:00Z,30.3288,-87.8293,0.0,4.8,157.0,99.0,'11111222,11111222,11144222' 
DISL,ioos:station:DISL:BSCA:1,2016-10-01T23:00:00Z,30.3288,-87.8293,0.0,3.4,171.0,99.0,'11111222,11111222,11144222' 
DISL,ioos:station:DISL:BSCA:1,2016-10-01T23:30:00Z,30.3288,-87.8293,0.0,2.8,169.0,99.0,'11111222,11111222,11144222' 
DISL,ioos:station:DISL:BSCA:1,2016-10-02T00:00:00Z,30.3288,-87.8293,0.0,3.2,178.0,99.0,'11111222,11111222,11144222' 
DISL,ioos:station:DISL:BSCA:1,2016-10-02T00:30:00Z,30.3288,-87.8293,0.0,2.6,189.0,99.0,'11111222,11111222,11144222' 
DISL,ioos:station:DISL:BSCA:1,2016-10-02T01:00:00Z,30.3288,-87.8293,0.0,3.0,207.0,99.0,'11111222,11111222,11144222' 
DISL,ioos:station:DISL:BSCA:1,2016-10-02T01:30:00Z,30.3288,-87.8293,0.0,2.9,195.0,99.0,'11111222,11111222,11144222' 
DISL,ioos:station:DISL:BSCA:1,2016-10-02T02:00:00Z,30.3288,-87.8293,0.0,2.4,225.0,99.0,'11111222,11111222,11144222' 
DISL,ioos:station:DISL:BSCA:1,2016-10-02T02:30:00Z,30.3288,-87.8293,0.0,1.7,250.0,99.0,'11111222,11111222,11144222' 
DISL,ioos:station:DISL:BSCA:1,2016-10-02T03:00:00Z,30.3288,-87.8293,0.0,2.2,244.0,99.0,'11111222,11111222,11144222' 
DISL,ioos:station:DISL:BSCA:1,2016-10-02T03:30:00Z,30.3288,-87.8293,0.0,1.9,234.0,99.0,'11111222,11111222,11144222' 
DISL,ioos:station:DISL:BSCA:1,2016-10-02T04:00:00Z,30.3288,-87.8293,0.0,0.8,280.0,99.0,'11111222,11111222,11144222' 
DISL,ioos:station:DISL:BSCA:1,2016-10-02T04:30:00Z,30.3288,-87.8293,0.0,1.2,65.0,99.0,'11111222,11111222,11144222' 
DISL,ioos:station:DISL:BSCA:1,2016-10-02T05:00:00Z,30.3288,-87.8293,0.0,2.4,66.0,99.0,'11111222,11111222,11144222' 
DISL,ioos:station:DISL:BSCA:1,2016-10-02T05:30:00Z,30.3288,-87.8293,0.0,2.2,69.0,99.0,'11111222,11111222,11144222' 
DISL,ioos:station:DISL:BSCA:1,2016-10-02T06:00:00Z,30.3288,-87.8293,0.0,2.4,50.0,99.0,'11111222,11111222,11144222' 
DISL,ioos:station:DISL:BSCA:1,2016-10-02T06:30:00Z,30.3288,-87.8293,0.0,2.0,49.0,99.0,'11111222,11111222,11144222' 
DISL,ioos:station:DISL:BSCA:1,2016-10-02T07:00:00Z,30.3288,-87.8293,0.0,1.9,39.0,99.0,'11111222,11111222,11144222' 
DISL,ioos:station:DISL:BSCA:1,2016-10-02T07:30:00Z,30.3288,-87.8293,0.0,2.3,36.0,99.0,'11111222,11111222,11144222' 
DISL,ioos:station:DISL:BSCA:1,2016-10-02T08:00:00Z,30.3288,-87.8293,0.0,2.2,25.0,99.0,'11111222,11111222,11144222' 
DISL,ioos:station:DISL:BSCA:1,2016-10-02T08:30:00Z,30.3288,-87.8293,0.0,2.1,21.0,99.0,'11111222,11111222,11144222' 
DISL,ioos:station:DISL:BSCA:1,2016-10-02T09:00:00Z,30.3288,-87.8293,0.0,2.8,25.0,99.0,'11111222,11111222,11144222' 
DISL,ioos:station:DISL:BSCA:1,2016-10-02T09:30:00Z,30.3288,-87.8293,0.0,2.7,30.0,99.0,'11111222,11111222,11144222' 
DISL,ioos:station:DISL:BSCA:1,2016-10-02T10:00:00Z,30.3288,-87.8293,0.0,3.7,33.0,99.0,'11111222,11111222,11144222' 
DISL,ioos:station:DISL:BSCA:1,2016-10-02T10:30:00Z,30.3288,-87.8293,0.0,3.7,22.0,99.0,'11111222,11111222,11144222' 
DISL,ioos:station:DISL:BSCA:1,2016-10-02T11:00:00Z,30.3288,-87.8293,0.0,4.0,23.0,99.0,'11111222,11111222,11144222' 
DISL,ioos:station:DISL:BSCA:1,2016-10-02T11:30:00Z,30.3288,-87.8293,0.0,3.7,35.0,99.0,'11111222,11111222,11144222' 
DISL,ioos:station:DISL:BSCA:1,2016-10-02T12:00:00Z,30.3288,-87.8293,0.0,3.8,35.0,99.0,'11111222,11111222,11144222' 
DISL,ioos:station:DISL:BSCA:1,2016-10-02T12:30:00Z,30.3288,-87.8293,0.0,4.3,25.0,99.0,'11111222,11111222,11144222' 
DISL,ioos:station:DISL:BSCA:1,2016-10-02T13:00:00Z,30.3288,-87.8293,0.0,4.4,18.0,99.0,'11111222,11111222,11144222' 
DISL,ioos:station:DISL:BSCA:1,2016-10-02T13:30:00Z,30.3288,-87.8293,0.0,5.0,25.0,99.0,'11111222,11111222,11144222' 
DISL,ioos:station:DISL:BSCA:1,2016-10-02T14:00:00Z,30.3288,-87.8293,0.0,4.5,28.0,99.0,'11111222,11111222,11144222' 
DISL,ioos:station:DISL:BSCA:1,2016-10-02T14:30:00Z,30.3288,-87.8293,0.0,3.9,32.0,99.0,'11111222,11111222,11144222' 
DISL,ioos:station:DISL:BSCA:1,2016-10-02T15:00:00Z,30.3288,-87.8293,0.0,3.1,33.0,99.0,'11111222,11111222,11144222' 
DISL,ioos:station:DISL:BSCA:1,2016-10-02T15:30:00Z,30.3288,-87.8293,0.0,4.4,27.0,99.0,'11111222,11111222,11144222' 
DISL,ioos:station:DISL:BSCA:1,2016-10-02T16:00:00Z,30.3288,-87.8293,0.0,3.5,33.0,99.0,'11111222,11111222,11144222' 
DISL,ioos:station:DISL:BSCA:1,2016-10-02T16:30:00Z,30.3288,-87.8293,0.0,4.8,43.0,99.0,'11111222,11111222,11144222' 
DISL,ioos:station:DISL:BSCA:1,2016-10-02T17:00:00Z,30.3288,-87.8293,0.0,3.6,47.0,99.0,'11111222,11111222,11144222' 
DISL,ioos:station:DISL:BSCA:1,2016-10-02T17:30:00Z,30.3288,-87.8293,0.0,3.1,60.0,99.0,'11111222,11111222,11144222' 
DISL,ioos:station:DISL:BSCA:1,2016-10-02T18:00:00Z,30.3288,-87.8293,0.0,2.2,86.0,99.0,'11111222,11111222,11144222' 
DISL,ioos:station:DISL:BSCA:1,2016-10-02T18:30:00Z,30.3288,-87.8293,0.0,3.5,43.0,99.0,'11111222,11111222,11144222' 
DISL,ioos:station:DISL:BSCA:1,2016-10-02T19:00:00Z,30.3288,-87.8293,0.0,3.4,54.0,99.0,'11111222,11111222,11144222' 
DISL,ioos:station:DISL:BSCA:1,2016-10-02T19:30:00Z,30.3288,-87.8293,0.0,3.2,59.0,99.0,'11111222,11111222,11144222' 
DISL,ioos:station:DISL:BSCA:1,2016-10-02T20:00:00Z,30.3288,-87.8293,0.0,3.6,54.0,99.0,'11111222,11111222,11144222' 
DISL,ioos:station:DISL:BSCA:1,2016-10-02T20:30:00Z,30.3288,-87.8293,0.0,2.9,62.0,99.0,'11111222,11111222,11144222' 
DISL,ioos:station:DISL:BSCA:1,2016-10-02T21:00:00Z,30.3288,-87.8293,0.0,3.2,53.0,99.0,'11111222,11111222,11144222' 
DISL,ioos:station:DISL:BSCA:1,2016-10-02T21:30:00Z,30.3288,-87.8293,0.0,2.5,65.0,99.0,'11111222,11111222,11144222' 
DISL,ioos:station:DISL:BSCA:1,2016-10-02T22:00:00Z,30.3288,-87.8293,0.0,2.4,93.0,99.0,'11111222,11111222,11144222' 
DISL,ioos:station:DISL:BSCA:1,2016-10-02T22:30:00Z,30.3288,-87.8293,0.0,2.1,96.0,99.0,'11111222,11111222,11144222' 
DISL,ioos:station:DISL:BSCA:1,2016-10-02T23:00:00Z,30.3288,-87.8293,0.0,2.5,103.0,99.0,'11111222,11111222,11144222' 
DISL,ioos:station:DISL:BSCA:1,2016-10-02T23:30:00Z,30.3288,-87.8293,0.0,2.7,86.0,99.0,'11111222,11111222,11144222' 
DISL,ioos:station:DISL:BSCA:1,2016-10-03T00:00:00Z,30.3288,-87.8293,0.0,3.0,81.0,99.0,'11111222,11111222,11144222' 
DISL,ioos:station:DISL:BSCA:1,2016-10-03T00:30:00Z,30.3288,-87.8293,0.0,2.7,78.0,99.0,'11111222,11111222,11144222' 
DISL,ioos:station:DISL:BSCA:1,2016-10-03T01:00:00Z,30.3288,-87.8293,0.0,2.2,60.0,99.0,'11111222,11111222,11144222' 
DISL,ioos:station:DISL:BSCA:1,2016-10-03T01:30:00Z,30.3288,-87.8293,0.0,2.6,25.0,99.0,'11111222,11111222,11144222' 
DISL,ioos:station:DISL:BSCA:1,2016-10-03T02:00:00Z,30.3288,-87.8293,0.0,2.7,30.0,99.0,'11111222,11111222,11144222' 
DISL,ioos:station:DISL:BSCA:1,2016-10-03T02:30:00Z,30.3288,-87.8293,0.0,2.1,32.0,99.0,'11111222,11111222,11144222' 
DISL,ioos:station:DISL:BSCA:1,2016-10-03T03:00:00Z,30.3288,-87.8293,0.0,2.1,11.0,99.0,'11111222,11111222,11144222' 
DISL,ioos:station:DISL:BSCA:1,2016-10-03T03:30:00Z,30.3288,-87.8293,0.0,2.5,51.0,99.0,'11111222,11111222,11144222' 
DISL,ioos:station:DISL:BSCA:1,2016-10-03T04:00:00Z,30.3288,-87.8293,0.0,1.9,28.0,99.0,'11111222,11111222,11144222' 
DISL,ioos:station:DISL:BSCA:1,2016-10-03T04:30:00Z,30.3288,-87.8293,0.0,2.2,33.0,99.0,'11111222,11111222,11144222' 
DISL,ioos:station:DISL:BSCA:1,2016-10-03T05:00:00Z,30.3288,-87.8293,0.0,2.2,44.0,99.0,'11111222,11111222,11144222' 
DISL,ioos:station:DISL:BSCA:1,2016-10-03T05:30:00Z,30.3288,-87.8293,0.0,3.0,35.0,99.0,'11111222,11111222,11144222' 
DISL,ioos:station:DISL:BSCA:1,2016-10-03T06:00:00Z,30.3288,-87.8293,0.0,2.5,31.0,99.0,'11111222,11111222,11144222' 
DISL,ioos:station:DISL:BSCA:1,2016-10-03T06:30:00Z,30.3288,-87.8293,0.0,4.5,20.0,99.0,'11111222,11111222,11144222' 
DISL,ioos:station:DISL:BSCA:1,2016-10-03T07:00:00Z,30.3288,-87.8293,0.0,3.4,40.0,99.0,'11111222,11111222,11144222' 
DISL,ioos:station:DISL:BSCA:1,2016-10-03T07:30:00Z,30.3288,-87.8293,0.0,2.5,47.0,99.0,'11111222,11111222,11144222' 
DISL,ioos:station:DISL:BSCA:1,2016-10-03T08:00:00Z,30.3288,-87.8293,0.0,2.2,27.0,99.0,'11111222,11111222,11144222' 
DISL,ioos:station:DISL:BSCA:1,2016-10-03T08:30:00Z,30.3288,-87.8293,0.0,2.1,39.0,99.0,'11111222,11111222,11144222' 
DISL,ioos:station:DISL:BSCA:1,2016-10-03T09:00:00Z,30.3288,-87.8293,0.0,2.9,24.0,99.0,'11111222,11111222,11144222' 
DISL,ioos:station:DISL:BSCA:1,2016-10-03T09:30:00Z,30.3288,-87.8293,0.0,2.7,36.0,99.0,'11111222,11111222,11144222' 
DISL,ioos:station:DISL:BSCA:1,2016-10-03T10:00:00Z,30.3288,-87.8293,0.0,3.4,35.0,99.0,'11111222,11111222,11144222' 
DISL,ioos:station:DISL:BSCA:1,2016-10-03T10:30:00Z,30.3288,-87.8293,0.0,3.9,35.0,99.0,'11111222,11111222,11144222' 
DISL,ioos:station:DISL:BSCA:1,2016-10-03T11:00:00Z,30.3288,-87.8293,0.0,4.8,32.0,99.0,'11111222,11111222,11144222' 
DISL,ioos:station:DISL:BSCA:1,2016-10-03T11:30:00Z,30.3288,-87.8293,0.0,4.4,32.0,99.0,'11111222,11111222,11144222' 
DISL,ioos:station:DISL:BSCA:1,2016-10-03T12:00:00Z,30.3288,-87.8293,0.0,4.8,38.0,99.0,'11111222,11111222,11144222' 
DISL,ioos:station:DISL:BSCA:1,2016-10-03T12:30:00Z,30.3288,-87.8293,0.0,4.6,50.0,99.0,'11111222,11111222,11144222' 
DISL,ioos:station:DISL:BSCA:1,2016-10-03T13:00:00Z,30.3288,-87.8293,0.0,5.1,46.0,99.0,'11111222,11111222,11144222' 
DISL,ioos:station:DISL:BSCA:1,2016-10-03T13:30:00Z,30.3288,-87.8293,0.0,4.8,48.0,99.0,'11111222,11111222,11144222' 
DISL,ioos:station:DISL:BSCA:1,2016-10-03T14:00:00Z,30.3288,-87.8293,0.0,4.7,36.0,99.0,'11111222,11111222,11144222' 
DISL,ioos:station:DISL:BSCA:1,2016-10-03T14:30:00Z,30.3288,-87.8293,0.0,4.3,44.0,99.0,'11111222,11111222,11144222' 
DISL,ioos:station:DISL:BSCA:1,2016-10-03T15:00:00Z,30.3288,-87.8293,0.0,4.3,53.0,99.0,'11111222,11111222,11144222' 
DISL,ioos:station:DISL:BSCA:1,2016-10-03T15:30:00Z,30.3288,-87.8293,0.0,4.9,43.0,99.0,'11111222,11111222,11144222' 
DISL,ioos:station:DISL:BSCA:1,2016-10-03T16:00:00Z,30.3288,-87.8293,0.0,4.2,55.0,99.0,'11111222,11111222,11144222' 
DISL,ioos:station:DISL:BSCA:1,2016-10-03T16:30:00Z,30.3288,-87.8293,0.0,4.8,71.0,99.0,'11111222,11111222,11144222' 
DISL,ioos:station:DISL:BSCA:1,2016-10-03T17:00:00Z,30.3288,-87.8293,0.0,3.7,78.0,99.0,'11111222,11111222,11144222' 
DISL,ioos:station:DISL:BSCA:1,2016-10-03T17:30:00Z,30.3288,-87.8293,0.0,3.4,75.0,99.0,'11111222,11111222,11144222' 
DISL,ioos:station:DISL:BSCA:1,2016-10-03T18:00:00Z,30.3288,-87.8293,0.0,3.4,70.0,99.0,'11111222,11111222,11144222' 
DISL,ioos:station:DISL:BSCA:1,2016-10-03T18:30:00Z,30.3288,-87.8293,0.0,1.7,68.0,99.0,'11111222,11111222,11144222' 
DISL,ioos:station:DISL:BSCA:1,2016-10-03T19:00:00Z,30.3288,-87.8293,0.0,1.9,107.0,99.0,'11111222,11111222,11144222' 
DISL,ioos:station:DISL:BSCA:1,2016-10-03T19:30:00Z,30.3288,-87.8293,0.0,2.8,251.0,99.0,'11111222,11111222,11144222' 
DISL,ioos:station:DISL:BSCA:1,2016-10-03T20:00:00Z,30.3288,-87.8293,0.0,2.2,234.0,99.0,'11111222,11111222,11144222' 
DISL,ioos:station:DISL:BSCA:1,2016-10-03T20:30:00Z,30.3288,-87.8293,0.0,2.8,264.0,99.0,'11111222,11111222,11144222' 
DISL,ioos:station:DISL:BSCA:1,2016-10-03T21:00:00Z,30.3288,-87.8293,0.0,3.2,292.0,99.0,'11111222,11111222,11144222' 
DISL,ioos:station:DISL:BSCA:1,2016-10-03T21:30:00Z,30.3288,-87.8293,0.0,2.2,279.0,99.0,'11111222,11111222,11144222' 
DISL,ioos:station:DISL:BSCA:1,2016-10-03T22:00:00Z,30.3288,-87.8293,0.0,2.4,271.0,99.0,'11111222,11111222,11144222' 
DISL,ioos:station:DISL:BSCA:1,2016-10-03T22:30:00Z,30.3288,-87.8293,0.0,1.9,273.0,99.0,'11111222,11111222,11144222' 
DISL,ioos:station:DISL:BSCA:1,2016-10-03T23:00:00Z,30.3288,-87.8293,0.0,1.7,251.0,99.0,'11111222,11111222,11144222' 
DISL,ioos:station:DISL:BSCA:1,2016-10-03T23:30:00Z,30.3288,-87.8293,0.0,1.5,272.0,99.0,'11111222,11111222,11144222' 
DISL,ioos:station:DISL:BSCA:1,2016-10-04T00:00:00Z,30.3288,-87.8293,0.0,1.6,300.0,99.0,'11111222,11111222,11144222' 
DISL,ioos:station:DISL:BSCA:1,2016-10-04T00:30:00Z,30.3288,-87.8293,0.0,1.4,318.0,99.0,'11111222,11111222,11144222' 
DISL,ioos:station:DISL:BSCA:1,2016-10-04T01:00:00Z,30.3288,-87.8293,0.0,0.7,52.0,99.0,'11111222,11111222,11144222' 
DISL,ioos:station:DISL:BSCA:1,2016-10-04T01:30:00Z,30.3288,-87.8293,0.0,1.2,75.0,99.0,'11111222,11111222,11144222' 
DISL,ioos:station:DISL:BSCA:1,2016-10-04T02:00:00Z,30.3288,-87.8293,0.0,1.2,46.0,99.0,'11111222,11111222,11144222' 
DISL,ioos:station:DISL:BSCA:1,2016-10-04T02:30:00Z,30.3288,-87.8293,0.0,1.1,45.0,99.0,'11111222,11111222,11144222' 
DISL,ioos:station:DISL:BSCA:1,2016-10-04T03:00:00Z,30.3288,-87.8293,0.0,1.5,75.0,99.0,'11111222,11111222,11144222' 
DISL,ioos:station:DISL:BSCA:1,2016-10-04T03:30:00Z,30.3288,-87.8293,0.0,1.6,55.0,99.0,'11111222,11111222,11144222' 
DISL,ioos:station:DISL:BSCA:1,2016-10-04T04:00:00Z,30.3288,-87.8293,0.0,2.2,50.0,99.0,'11111222,11111222,11144222' 
DISL,ioos:station:DISL:BSCA:1,2016-10-04T04:30:00Z,30.3288,-87.8293,0.0,2.4,21.0,99.0,'11111222,11111222,11144222' 
DISL,ioos:station:DISL:BSCA:1,2016-10-04T05:00:00Z,30.3288,-87.8293,0.0,2.0,31.0,99.0,'11111222,11111222,11144222' 
DISL,ioos:station:DISL:BSCA:1,2016-10-04T05:30:00Z,30.3288,-87.8293,0.0,1.6,101.0,99.0,'11111222,11111222,11144222' 
DISL,ioos:station:DISL:BSCA:1,2016-10-04T06:00:00Z,30.3288,-87.8293,0.0,1.8,45.0,99.0,'11111222,11111222,11144222' 
DISL,ioos:station:DISL:BSCA:1,2016-10-04T06:30:00Z,30.3288,-87.8293,0.0,1.8,34.0,99.0,'11111222,11111222,11144222' 
DISL,ioos:station:DISL:BSCA:1,2016-10-04T07:00:00Z,30.3288,-87.8293,0.0,1.8,21.0,99.0,'11111222,11111222,11144222' 
DISL,ioos:station:DISL:BSCA:1,2016-10-04T07:30:00Z,30.3288,-87.8293,0.0,1.6,46.0,99.0,'11111222,11111222,11144222' 
DISL,ioos:station:DISL:BSCA:1,2016-10-04T08:00:00Z,30.3288,-87.8293,0.0,1.9,37.0,99.0,'11111222,11111222,11144222' 
DISL,ioos:station:DISL:BSCA:1,2016-10-04T08:30:00Z,30.3288,-87.8293,0.0,1.7,38.0,99.0,'11111222,11111222,11144222' 
DISL,ioos:station:DISL:BSCA:1,2016-10-04T09:00:00Z,30.3288,-87.8293,0.0,1.5,33.0,99.0,'11111222,11111222,11144222' 
DISL,ioos:station:DISL:BSCA:1,2016-10-04T09:30:00Z,30.3288,-87.8293,0.0,2.3,55.0,99.0,'11111222,11111222,11144222' 
DISL,ioos:station:DISL:BSCA:1,2016-10-04T10:00:00Z,30.3288,-87.8293,0.0,2.0,62.0,99.0,'11111222,11111222,11144222' 
DISL,ioos:station:DISL:BSCA:1,2016-10-04T10:30:00Z,30.3288,-87.8293,0.0,2.4,59.0,99.0,'11111222,11111222,11144222' 
DISL,ioos:station:DISL:BSCA:1,2016-10-04T11:00:00Z,30.3288,-87.8293,0.0,2.1,51.0,99.0,'11111222,11111222,11144222' 
DISL,ioos:station:DISL:BSCA:1,2016-10-04T11:30:00Z,30.3288,-87.8293,0.0,3.0,55.0,99.0,'11111222,11111222,11144222' 
DISL,ioos:station:DISL:BSCA:1,2016-10-04T12:00:00Z,30.3288,-87.8293,0.0,4.0,54.0,99.0,'11111222,11111222,11144222' 
DISL,ioos:station:DISL:BSCA:1,2016-10-04T12:30:00Z,30.3288,-87.8293,0.0,4.7,61.0,99.0,'11111222,11111222,11144222' 
DISL,ioos:station:DISL:BSCA:1,2016-10-04T13:00:00Z,30.3288,-87.8293,0.0,4.6,66.0,99.0,'11111222,11111222,11144222' 
DISL,ioos:station:DISL:BSCA:1,2016-10-04T13:30:00Z,30.3288,-87.8293,0.0,4.6,66.0,99.0,'11111222,11111222,11144222' 
DISL,ioos:station:DISL:BSCA:1,2016-10-04T14:00:00Z,30.3288,-87.8293,0.0,4.1,77.0,99.0,'11111222,11111222,11144222' 
DISL,ioos:station:DISL:BSCA:1,2016-10-04T14:30:00Z,30.3288,-87.8293,0.0,4.5,75.0,99.0,'11111222,11111222,11144222' 
DISL,ioos:station:DISL:BSCA:1,2016-10-04T15:00:00Z,30.3288,-87.8293,0.0,4.4,90.0,99.0,'11111222,11111222,11144222' 
DISL,ioos:station:DISL:BSCA:1,2016-10-04T15:30:00Z,30.3288,-87.8293,0.0,5.5,105.0,99.0,'11111222,11111222,11144222' 
DISL,ioos:station:DISL:BSCA:1,2016-10-04T16:00:00Z,30.3288,-87.8293,0.0,5.5,113.0,99.0,'11111222,11111222,11144222' 
DISL,ioos:station:DISL:BSCA:1,2016-10-04T16:30:00Z,30.3288,-87.8293,0.0,5.3,121.0,99.0,'11111222,11111222,11144222' 
DISL,ioos:station:DISL:BSCA:1,2016-10-04T17:00:00Z,30.3288,-87.8293,0.0,5.3,121.0,99.0,'11111222,11111222,11144222' 
DISL,ioos:station:DISL:BSCA:1,2016-10-04T17:30:00Z,30.3288,-87.8293,0.0,6.1,124.0,99.0,'11111222,11111222,11144222' 
DISL,ioos:station:DISL:BSCA:1,2016-10-04T18:00:00Z,30.3288,-87.8293,0.0,6.5,114.0,99.0,'11111222,11111222,11144222' 
DISL,ioos:station:DISL:BSCA:1,2016-10-04T18:30:00Z,30.3288,-87.8293,0.0,6.1,117.0,99.0,'11111222,11111222,11144222' 
DISL,ioos:station:DISL:BSCA:1,2016-10-04T19:00:00Z,30.3288,-87.8293,0.0,5.9,139.0,99.0,'11111222,11111222,11144222' 
DISL,ioos:station:DISL:BSCA:1,2016-10-04T19:30:00Z,30.3288,-87.8293,0.0,5.2,140.0,99.0,'11111222,11111222,11144222' 
DISL,ioos:station:DISL:BSCA:1,2016-10-04T20:00:00Z,30.3288,-87.8293,0.0,4.7,137.0,99.0,'11111222,11111222,11144222' 
DISL,ioos:station:DISL:BSCA:1,2016-10-04T20:30:00Z,30.3288,-87.8293,0.0,5.5,147.0,99.0,'11111222,11111222,11144222' 
DISL,ioos:station:DISL:BSCA:1,2016-10-04T21:00:00Z,30.3288,-87.8293,0.0,5.6,146.0,99.0,'11111222,11111222,11144222' 
DISL,ioos:station:DISL:BSCA:1,2016-10-04T21:30:00Z,30.3288,-87.8293,0.0,5.4,148.0,99.0,'11111222,11111222,11144222' 
DISL,ioos:station:DISL:BSCA:1,2016-10-04T22:00:00Z,30.3288,-87.8293,0.0,5.3,146.0,99.0,'11111222,11111222,11144222' 
DISL,ioos:station:DISL:BSCA:1,2016-10-04T22:30:00Z,30.3288,-87.8293,0.0,4.7,145.0,99.0,'11111222,11111222,11144222' 
DISL,ioos:station:DISL:BSCA:1,2016-10-04T23:00:00Z,30.3288,-87.8293,0.0,4.7,142.0,99.0,'11111222,11111222,11144222' 
DISL,ioos:station:DISL:BSCA:1,2016-10-04T23:30:00Z,30.3288,-87.8293,0.0,3.9,142.0,99.0,'11111222,11111222,11144222' 
DISL,ioos:station:DISL:BSCA:1,2016-10-05T00:00:00Z,30.3288,-87.8293,0.0,3.3,136.0,99.0,'11111222,11111222,11144222' 
DISL,ioos:station:DISL:BSCA:1,2016-10-05T00:30:00Z,30.3288,-87.8293,0.0,1.5,100.0,99.0,'11111222,11111222,11144222' 
DISL,ioos:station:DISL:BSCA:1,2016-10-05T01:00:00Z,30.3288,-87.8293,0.0,1.1,40.0,99.0,'11111222,11111222,11144222' 
DISL,ioos:station:DISL:BSCA:1,2016-10-05T01:30:00Z,30.3288,-87.8293,0.0,1.1,20.0,99.0,'11111222,11111222,11144222' 
DISL,ioos:station:DISL:BSCA:1,2016-10-05T02:00:00Z,30.3288,-87.8293,0.0,1.2,21.0,99.0,'11111222,11111222,11144222' 
DISL,ioos:station:DISL:BSCA:1,2016-10-05T02:30:00Z,30.3288,-87.8293,0.0,1.4,72.0,99.0,'11111222,11111222,11144222' 
DISL,ioos:station:DISL:BSCA:1,2016-10-05T03:00:00Z,30.3288,-87.8293,0.0,1.9,59.0,99.0,'11111222,11111222,11144222' 
DISL,ioos:station:DISL:BSCA:1,2016-10-05T03:30:00Z,30.3288,-87.8293,0.0,2.8,56.0,99.0,'11111222,11111222,11144222' 
DISL,ioos:station:DISL:BSCA:1,2016-10-05T04:00:00Z,30.3288,-87.8293,0.0,2.9,60.0,99.0,'11111222,11111222,11144222' 
DISL,ioos:station:DISL:BSCA:1,2016-10-05T04:30:00Z,30.3288,-87.8293,0.0,3.2,53.0,99.0,'11111222,11111222,11144222' 
DISL,ioos:station:DISL:BSCA:1,2016-10-05T05:00:00Z,30.3288,-87.8293,0.0,3.3,54.0,99.0,'11111222,11111222,11144222' 
DISL,ioos:station:DISL:BSCA:1,2016-10-05T05:30:00Z,30.3288,-87.8293,0.0,3.8,49.0,99.0,'11111222,11111222,11144222' 
DISL,ioos:station:DISL:BSCA:1,2016-10-05T06:00:00Z,30.3288,-87.8293,0.0,3.9,58.0,99.0,'11111222,11111222,11144222' 